Location: Melizzano
(41.1500°N, 14.5000°E)
Time: 09:14:08
(UTC+00:00)

Nadezhda 1 Rocket - Pass Details

Date: 11 May 2021
Orbit: 940 x 1006 km, 83.0° (Epoch: 16 June)

Event Time Altitude Azimuth Distance (km) Brightness Sun altitude
Exits shadow 21:19:52 45° 214° (SW) 1,323 4.4 -26.5°
Maximum altitude 21:21:48 67° 279° (W) 1,063 4.2 -26.6°
Drops below altitude 10° 21:28:02 10° 2° (N) 2,730 7.1 -27.1°
Sets 21:30:34 0° 5° (N) 3,671 7.9 -27.3°
